User: anonymous   Login
Location: *
(58.7167°N, 26.1833°E)
Time: 16:46:11
(UTC+00:00)
Language:

Cosmos 407 Rocket - Orbit

View from above orbital plane
View from above orbital plane
View from above satellite
View from above satellite

Ground track
Ground track

The orbit data is extracted from the following two-line orbital elements,

1  5175U 71035B   19292.55786602  .00000051  00000-0  25527-4 0  9997
2  5175  74.0478  77.0158 0029024  73.5305 286.9035 14.37954166537743
Epoch (UTC): 19 October 2019 13:23:19
Eccentricity: 0.0029024
inclination: 74.0478°
perigee height: 744 km
apogee height: 786 km
right ascension of ascending node: 77.0158°
argument of perigee: 73.5305°
revolutions per day: 14.37954166
mean anomaly at epoch: 286.9035°
orbit number at epoch: 53774

The dashed part of the orbit path shows where the satellite is in the earth's shadow,  

DLR